Weather History for Honolulu, HI

Change the Weather History Date:

Friday, April 19, 2013

  Actual Average Record
Temperature  
Mean Temperature 78 °F 76 °F  
Max Temperature 84 °F 83 °F 89 °F (1996)
Min Temperature 72 °F 70 °F 62 °F (1954)
Degree Days  
Heating Degree Days 0 0  
Month to date heating degree days 0 0  
Since 1 July heating degree days 0 0  
Cooling Degree Days 13 11  
Month to date cooling degree days 198 209  
Year to date cooling degree days 953 984  
Growing Degree Days 28 (Base 50)    
Moisture  
Dew Point 68 °F    
Average Humidity 74    
Maximum Humidity 84    
Minimum Humidity 63    
Precipitation  
Precipitation T in 0.01 in 3.14 in (1974)
Month to date precipitation 0.78 0.47  
Year to date precipitation 6.80 6.79  
Snow  
Snow 0.00 in - - ()
Month to date snowfall 0.0  
Since 1 July snowfall 0.0  
Snow Depth 0.00 in    
Sea Level Pressure  
Sea Level Pressure 30.08 in    
Wind  
Wind Speed 10 mph (ENE)    
Max Wind Speed 17 mph    
Max Gust Speed 23 mph    
Visibility 10 miles    
Events Rain    
T = Trace of Precipitation, MM = Missing Value Source: NWS Daily Summary

Daily Weather History Graph

Daily Weather History Graph

Search for Another Location

Airport:

Trip Planner

Search our weather history database for the weather conditions in past years. The results will help you decide how hot, cold, wet, or windy it might be!

Date:

Astronomy

Apr. 19, 2013 Rise Set
Actual Time 6:09 AM HST 6:52 PM HST
Civil Twilight 5:46 AM HST 7:15 PM HST
Nautical Twilight 5:19 AM HST 7:42 PM HST
Astronomical Twilight 4:52 AM HST 8:09 PM HST
Moon 1:31 PM HST (4/19) 1:45 AM HST (4/19)
Length of Visible Light 13h 29m
Length of Day
12h 43m
Waxing Gibbous, 64% of the Moon is Illuminated
Apr 19
Waxing Gibbous
Apr 25
Full
May 2
Last Quarter
May 9
New
May 17
First Quarter

Hourly Weather History & Observations

Time (HST) Temp. Heat Index Dew Point Humidity Pressure Visibility Wind Dir Wind Speed Gust Speed Precip Events Conditions
12:53 AM 73.9 °F - 66.9 °F 79% 30.11 in 10.0 mi ENE 9.2 mph - N/A   Partly Cloudy
1:53 AM 73.9 °F - 66.9 °F 79% 30.10 in 10.0 mi East 9.2 mph - N/A   Partly Cloudy
2:53 AM 73.0 °F - 66.9 °F 81% 30.08 in 10.0 mi East 6.9 mph - N/A   Partly Cloudy
3:53 AM 73.0 °F - 66.9 °F 81% 30.07 in 10.0 mi ENE 5.8 mph - N/A   Partly Cloudy
4:53 AM 73.0 °F - 66.0 °F 79% 30.06 in 10.0 mi NE 9.2 mph - N/A   Partly Cloudy
5:53 AM 73.0 °F - 68.0 °F 84% 30.07 in 10.0 mi NE 9.2 mph - N/A   Scattered Clouds
6:53 AM 73.0 °F - 68.0 °F 84% 30.09 in 10.0 mi NE 6.9 mph - N/A   Partly Cloudy
7:53 AM 75.9 °F - 69.1 °F 79% 30.11 in 10.0 mi NE 10.4 mph 16.1 mph 0.00 in   Scattered Clouds
8:53 AM 78.1 °F - 69.1 °F 74% 30.11 in 10.0 mi NE 11.5 mph 18.4 mph N/A   Mostly Cloudy
9:53 AM 78.1 °F - 70.0 °F 76% 30.12 in 10.0 mi East 9.2 mph - N/A   Mostly Cloudy
10:53 AM 78.1 °F - 70.0 °F 76% 30.11 in 10.0 mi East 8.1 mph - 0.00 in   Mostly Cloudy
11:07 AM 80.6 °F 83.9 °F 69.8 °F 70% 30.10 in 10.0 mi East 12.7 mph - N/A   Mostly Cloudy
11:53 AM 79.0 °F - 70.0 °F 74% 30.10 in 10.0 mi ENE 12.7 mph - 0.00 in   Mostly Cloudy
12:53 PM 78.1 °F - 72.0 °F 81% 30.08 in 9.0 mi NE 11.5 mph - 0.00 in Rain Light Rain
1:53 PM 82.9 °F 85.8 °F 68.0 °F 60% 30.05 in 10.0 mi East 12.7 mph - 0.00 in   Mostly Cloudy
2:53 PM 81.0 °F 83.8 °F 68.0 °F 65% 30.04 in 10.0 mi ENE 16.1 mph - N/A   Mostly Cloudy
3:53 PM 81.0 °F 83.8 °F 68.0 °F 65% 30.03 in 10.0 mi East 16.1 mph 20.7 mph N/A   Mostly Cloudy
4:53 PM 80.1 °F 82.3 °F 66.9 °F 64% 30.03 in 10.0 mi East 10.4 mph - N/A   Mostly Cloudy
5:53 PM 78.1 °F - 66.9 °F 68% 30.04 in 10.0 mi East 13.8 mph - N/A   Mostly Cloudy
6:53 PM 75.9 °F - 68.0 °F 76% 30.07 in 10.0 mi ENE 10.4 mph - N/A   Mostly Cloudy
7:53 PM 75.0 °F - 68.0 °F 79% 30.08 in 10.0 mi NE 8.1 mph - N/A   Partly Cloudy
8:53 PM 75.0 °F - 68.0 °F 79% 30.10 in 10.0 mi NE 6.9 mph - N/A   Partly Cloudy
9:53 PM 73.9 °F - 69.1 °F 85% 30.10 in 10.0 mi ENE 6.9 mph - N/A   Scattered Clouds
10:53 PM 75.0 °F - 69.1 °F 82% 30.11 in 10.0 mi East 4.6 mph - N/A   Mostly Cloudy
11:53 PM 73.0 °F - 71.1 °F 93% 30.10 in 10.0 mi SE 6.9 mph - N/A   Mostly Cloudy